Time,TemperatureF,DewpointF,PressureIn,WindDirection,WindDirectionDegrees,WindSpeedMPH,WindSpeedGustMPH,Humidity,HourlyPrecipIn,Conditions,Clouds,dailyrainin,SoftwareType,DateUTC
2013-01-21 00:00:00,-4.0,-12.0,30.21,WNW,293,8.5,8.5,68,0.00,,,0.00,WUHU216HW,2013-01-21 06:00:00,
2013-01-21 00:05:00,-4.0,-12.0,30.21,WNW,293,15.2,15.2,68,0.00,,,0.00,WUHU216HW,2013-01-21 06:05:00,
2013-01-21 00:10:00,-4.0,-12.0,30.21,WNW,293,15.2,15.2,68,0.00,,,0.00,WUHU216HW,2013-01-21 06:10:00,
2013-01-21 00:30:00,-4.3,-12.3,30.21,NW,315,12.5,12.5,68,0.00,,,0.00,WUHU216HW,2013-01-21 06:30:00,
2013-01-21 00:35:00,-4.3,-12.3,30.21,WNW,293,14.1,14.1,68,0.00,,,0.00,WUHU216HW,2013-01-21 06:35:00,
2013-01-21 00:36:00,-4.3,-12.3,30.21,WNW,293,14.1,14.1,68,0.00,,,0.00,WUHU216HW,2013-01-21 06:36:00,
2013-01-21 00:40:00,-4.3,-12.3,30.21,WNW,293,14.1,14.1,68,0.00,,,0.00,WUHU216HW,2013-01-21 06:40:00,
2013-01-21 01:00:00,-4.9,-12.5,30.21,NW,315,9.6,9.6,69,0.00,,,0.00,WUHU216HW,2013-01-21 07:00:00,
2013-01-21 01:05:00,-4.9,-12.5,30.21,NNW,338,7.4,9.6,69,0.00,,,0.00,WUHU216HW,2013-01-21 07:05:00,
2013-01-21 01:10:00,-4.9,-12.5,30.21,NNW,338,7.4,8.5,69,0.00,,,0.00,WUHU216HW,2013-01-21 07:10:00,
2013-01-21 01:30:00,-5.4,-12.5,30.21,NNW,338,6.3,6.3,71,0.00,,,0.00,WUHU216HW,2013-01-21 07:30:00,
2013-01-21 01:31:00,-5.4,-12.5,30.21,NW,315,7.8,7.8,71,0.00,,,0.00,WUHU216HW,2013-01-21 07:31:00,
2013-01-21 01:32:00,-5.4,-12.5,30.21,NW,315,7.8,7.8,71,0.00,,,0.00,WUHU216HW,2013-01-21 07:32:00,
2013-01-21 01:35:00,-5.4,-12.5,30.21,NW,315,7.8,7.8,71,0.00,,,0.00,WUHU216HW,2013-01-21 07:35:00,
2013-01-21 01:36:00,-5.4,-12.5,30.21,NW,315,7.8,7.8,71,0.00,,,0.00,WUHU216HW,2013-01-21 07:36:00,
2013-01-21 01:37:00,-5.4,-12.5,30.21,NW,315,7.8,7.8,71,0.00,,,0.00,WUHU216HW,2013-01-21 07:37:00,
2013-01-21 01:40:00,-5.4,-12.5,30.21,NW,315,7.8,7.8,71,0.00,,,0.00,WUHU216HW,2013-01-21 07:40:00,
2013-01-21 02:00:00,-5.8,-12.6,30.21,West,270,5.6,5.6,72,0.00,,,0.00,WUHU216HW,2013-01-21 08:00:00,
2013-01-21 02:05:00,-5.8,-12.6,30.21,West,270,5.6,5.6,72,0.00,,,0.00,WUHU216HW,2013-01-21 08:05:00,
2013-01-21 02:10:00,-5.8,-12.6,30.21,West,270,5.6,5.6,72,0.00,,,0.00,WUHU216HW,2013-01-21 08:10:00,
2013-01-21 02:30:00,-6.1,-13.2,30.22,WNW,293,9.2,9.2,71,0.00,,,0.00,WUHU216HW,2013-01-21 08:30:00,
2013-01-21 02:35:00,-6.1,-13.2,30.22,WNW,293,7.4,9.2,71,0.00,,,0.00,WUHU216HW,2013-01-21 08:35:00,
2013-01-21 02:36:00,-6.1,-13.2,30.22,WNW,293,7.4,9.2,71,0.00,,,0.00,WUHU216HW,2013-01-21 08:36:00,
2013-01-21 03:00:00,-7.0,-13.8,30.22,WNW,293,7.8,7.8,72,0.00,,,0.00,WUHU216HW,2013-01-21 09:00:00,
2013-01-21 03:05:00,-7.0,-13.8,30.22,West,270,7.6,7.8,72,0.00,,,0.00,WUHU216HW,2013-01-21 09:05:00,
2013-01-21 03:30:00,-7.9,-15.4,30.22,NW,315,7.4,7.4,69,0.00,,,0.00,WUHU216HW,2013-01-21 09:30:00,
2013-01-21 03:31:00,-7.9,-15.4,30.22,NW,315,7.3,7.4,69,0.00,,,0.00,WUHU216HW,2013-01-21 09:31:00,
2013-01-21 03:35:00,-7.9,-15.4,30.22,NW,315,7.2,7.4,69,0.00,,,0.00,WUHU216HW,2013-01-21 09:35:00,
2013-01-21 03:36:00,-7.9,-15.4,30.22,NW,315,7.2,7.4,69,0.00,,,0.00,WUHU216HW,2013-01-21 09:36:00,
2013-01-21 04:00:00,-8.6,-16.7,30.23,WNW,293,10.1,10.1,67,0.00,,,0.00,WUHU216HW,2013-01-21 10:00:00,
2013-01-21 04:05:00,-8.6,-16.7,30.23,WNW,293,11.4,11.4,67,0.00,,,0.00,WUHU216HW,2013-01-21 10:05:00,
2013-01-21 04:10:00,-8.6,-16.7,30.23,WNW,293,11.4,11.4,67,0.00,,,0.00,WUHU216HW,2013-01-21 10:10:00,
2013-01-21 04:30:00,-9.5,-17.6,30.23,WNW,293,14.1,14.1,67,0.00,,,0.00,WUHU216HW,2013-01-21 10:30:00,
2013-01-21 04:31:00,-9.5,-17.6,30.23,WNW,293,14.1,14.1,67,0.00,,,0.00,WUHU216HW,2013-01-21 10:31:00,
2013-01-21 04:35:00,-9.5,-17.6,30.23,WNW,293,14.1,14.1,67,0.00,,,0.00,WUHU216HW,2013-01-21 10:35:00,
2013-01-21 04:36:00,-9.5,-17.6,30.23,WNW,293,14.1,14.1,67,0.00,,,0.00,WUHU216HW,2013-01-21 10:36:00,
2013-01-21 04:40:00,-9.5,-17.6,30.23,WNW,293,14.1,14.1,67,0.00,,,0.00,WUHU216HW,2013-01-21 10:40:00,
2013-01-21 05:00:00,-10.4,-18.8,30.22,NW,315,8.3,8.3,66,0.00,,,0.00,WUHU216HW,2013-01-21 11:00:00,
2013-01-21 05:05:00,-10.4,-18.8,30.22,WNW,293,7.6,8.3,66,0.00,,,0.00,WUHU216HW,2013-01-21 11:05:00,
2013-01-21 05:10:00,-10.4,-18.8,30.22,WNW,293,7.6,8.3,66,0.00,,,0.00,WUHU216HW,2013-01-21 11:10:00,
2013-01-21 05:30:00,-11.0,-19.1,30.23,WNW,293,7.2,7.2,67,0.00,,,0.00,WUHU216HW,2013-01-21 11:30:00,
2013-01-21 05:35:00,-11.0,-19.1,30.24,West,270,8.9,8.9,67,0.00,,,0.00,WUHU216HW,2013-01-21 11:35:00,
2013-01-21 06:00:00,-11.3,-19.3,30.24,WNW,293,8.9,8.9,67,0.00,,,0.00,WUHU216HW,2013-01-21 12:00:00,
2013-01-21 06:05:00,-11.3,-19.3,30.24,NW,315,13.2,13.2,67,0.00,,,0.00,WUHU216HW,2013-01-21 12:05:00,
2013-01-21 06:10:00,-11.3,-19.3,30.24,NW,315,13.2,13.2,67,0.00,,,0.00,WUHU216HW,2013-01-21 12:10:00,
2013-01-21 06:30:00,-11.9,-19.6,30.24,West,270,8.7,8.7,68,0.00,,,0.00,WUHU216HW,2013-01-21 12:30:00,
2013-01-21 06:35:00,-11.9,-19.6,30.24,WNW,293,10.3,10.3,68,0.00,,,0.00,WUHU216HW,2013-01-21 12:35:00,
2013-01-21 06:36:00,-11.9,-19.6,30.24,WNW,293,10.3,10.3,68,0.00,,,0.00,WUHU216HW,2013-01-21 12:36:00,
2013-01-21 06:40:00,-11.9,-19.6,30.24,WNW,293,10.3,10.3,68,0.00,,,0.00,WUHU216HW,2013-01-21 12:40:00,
2013-01-21 07:00:00,-12.2,-19.9,30.24,West,270,5.8,5.8,68,0.00,,,0.00,WUHU216HW,2013-01-21 13:00:00,
2013-01-21 07:05:00,-12.2,-19.6,30.24,West,270,6.9,6.9,69,0.00,,,0.00,WUHU216HW,2013-01-21 13:05:00,
2013-01-21 07:10:00,-12.2,-19.6,30.24,West,270,6.9,6.9,69,0.00,,,0.00,WUHU216HW,2013-01-21 13:10:00,
2013-01-21 07:30:00,-12.6,-19.6,30.25,WNW,293,9.2,9.2,70,0.00,,,0.00,WUHU216HW,2013-01-21 13:30:00,
2013-01-21 07:31:00,-12.6,-19.6,30.25,WNW,293,9.2,9.2,70,0.00,,,0.00,WUHU216HW,2013-01-21 13:31:00,
2013-01-21 07:35:00,-12.6,-19.6,30.25,WNW,293,9.2,9.2,70,0.00,,,0.00,WUHU216HW,2013-01-21 13:35:00,
2013-01-21 07:36:00,-12.6,-19.6,30.25,WNW,293,9.2,9.2,70,0.00,,,0.00,WUHU216HW,2013-01-21 13:36:00,
2013-01-21 08:00:00,-12.4,-19.3,30.25,WNW,293,8.3,8.3,71,0.00,,,0.00,WUHU216HW,2013-01-21 14:00:00,
2013-01-21 08:05:00,-12.4,-19.5,30.25,NW,315,11.9,11.9,70,0.00,,,0.00,WUHU216HW,2013-01-21 14:05:00,
2013-01-21 08:10:00,-12.4,-19.5,30.25,NW,315,11.9,11.9,70,0.00,,,0.00,WUHU216HW,2013-01-21 14:10:00,
2013-01-21 08:30:00,-11.3,-19.1,30.26,NW,315,11.6,11.6,68,0.00,,,0.00,WUHU216HW,2013-01-21 14:30:00,
2013-01-21 08:35:00,-11.3,-19.1,30.26,NW,315,9.4,11.6,68,0.00,,,0.00,WUHU216HW,2013-01-21 14:35:00,
2013-01-21 08:36:00,-11.3,-19.1,30.26,NW,315,9.4,11.6,68,0.00,,,0.00,WUHU216HW,2013-01-21 14:36:00,
2013-01-21 08:40:00,-11.3,-19.1,30.26,NW,315,9.4,9.4,68,0.00,,,0.00,WUHU216HW,2013-01-21 14:40:00,
2013-01-21 09:00:00,-10.8,-18.5,30.27,NW,315,8.5,8.5,68,0.00,,,0.00,WUHU216HW,2013-01-21 15:00:00,
2013-01-21 09:05:00,-10.6,-18.4,30.27,NW,315,8.9,8.9,68,0.00,,,0.00,WUHU216HW,2013-01-21 15:05:00,
2013-01-21 09:10:00,-10.6,-18.4,30.27,NW,315,8.9,8.9,68,0.00,,,0.00,WUHU216HW,2013-01-21 15:10:00,
2013-01-21 09:30:00,-9.5,-17.6,30.27,NW,315,6.7,6.7,67,0.00,,,0.00,WUHU216HW,2013-01-21 15:30:00,
2013-01-21 09:35:00,-9.5,-17.6,30.27,NW,315,6.7,6.7,67,0.00,,,0.00,WUHU216HW,2013-01-21 15:35:00,
2013-01-21 09:36:00,-9.5,-17.6,30.27,NW,315,6.7,6.7,67,0.00,,,0.00,WUHU216HW,2013-01-21 15:36:00,
2013-01-21 10:00:00,-9.5,-18.3,30.28,WNW,293,8.9,8.9,65,0.00,,,0.00,WUHU216HW,2013-01-21 16:00:00,
2013-01-21 10:01:00,-9.5,-18.3,30.28,WNW,293,8.9,8.9,65,0.00,,,0.00,WUHU216HW,2013-01-21 16:01:00,
2013-01-21 10:05:00,-9.5,-18.3,30.28,WNW,293,8.9,8.9,65,0.00,,,0.00,WUHU216HW,2013-01-21 16:05:00,
2013-01-21 10:06:00,-9.5,-18.3,30.28,WNW,293,8.9,8.9,65,0.00,,,0.00,WUHU216HW,2013-01-21 16:06:00,
2013-01-21 10:10:00,-9.5,-18.3,30.28,WNW,293,8.9,8.9,65,0.00,,,0.00,WUHU216HW,2013-01-21 16:10:00,
2013-01-21 10:30:00,-9.7,-18.4,30.28,West,270,12.8,12.8,65,0.00,,,0.00,WUHU216HW,2013-01-21 16:30:00,
2013-01-21 10:35:00,-9.7,-18.4,30.28,West,270,12.8,12.8,65,0.00,,,0.00,WUHU216HW,2013-01-21 16:35:00,
2013-01-21 10:36:00,-9.7,-18.4,30.28,West,270,12.8,12.8,65,0.00,,,0.00,WUHU216HW,2013-01-21 16:36:00,
2013-01-21 11:00:00,-8.6,-17.4,30.27,WNW,293,9.2,9.2,65,0.00,,,0.00,WUHU216HW,2013-01-21 17:00:00,
2013-01-21 11:05:00,-8.6,-17.4,30.27,WNW,293,9.2,9.2,65,0.00,,,0.00,WUHU216HW,2013-01-21 17:05:00,
2013-01-21 11:30:00,-8.5,-17.4,30.27,WNW,293,8.3,8.3,64,0.00,,,0.00,WUHU216HW,2013-01-21 17:30:00,
2013-01-21 11:35:00,-8.5,-17.4,30.27,WNW,293,8.3,8.3,64,0.00,,,0.00,WUHU216HW,2013-01-21 17:35:00,
2013-01-21 11:36:00,-8.5,-17.4,30.27,WNW,293,8.3,8.3,64,0.00,,,0.00,WUHU216HW,2013-01-21 17:36:00,
2013-01-21 12:00:00,-8.1,-17.1,30.25,West,270,10.1,10.1,64,0.00,,,0.00,WUHU216HW,2013-01-21 18:00:00,
2013-01-21 12:05:00,-8.1,-17.1,30.25,West,270,10.1,10.1,64,0.00,,,0.00,WUHU216HW,2013-01-21 18:05:00,
2013-01-21 12:06:00,-8.1,-17.1,30.25,West,270,10.1,10.1,64,0.00,,,0.00,WUHU216HW,2013-01-21 18:06:00,
2013-01-21 12:30:00,-7.6,-16.9,30.23,SW,225,9.2,9.2,63,0.00,,,0.00,WUHU216HW,2013-01-21 18:30:00,
2013-01-21 12:35:00,-7.6,-16.9,30.23,SW,225,9.2,9.2,63,0.00,,,0.00,WUHU216HW,2013-01-21 18:35:00,
2013-01-21 13:00:00,-7.2,-17.2,30.22,West,270,11.4,11.4,61,0.00,,,0.00,WUHU216HW,2013-01-21 19:00:00,
2013-01-21 13:05:00,-7.2,-17.2,30.22,West,270,11.4,11.4,61,0.00,,,0.00,WUHU216HW,2013-01-21 19:05:00,
2013-01-21 13:30:00,-6.8,-16.6,30.22,WNW,293,7.4,7.4,62,0.00,,,0.00,WUHU216HW,2013-01-21 19:30:00,
2013-01-21 13:35:00,-6.8,-16.6,30.22,WNW,293,7.4,7.4,62,0.00,,,0.00,WUHU216HW,2013-01-21 19:35:00,
2013-01-21 14:00:00,-6.1,-15.9,30.22,NW,315,10.3,10.3,62,0.00,,,0.00,WUHU216HW,2013-01-21 20:00:00,
2013-01-21 14:05:00,-6.1,-15.9,30.22,NW,315,10.3,10.3,62,0.00,,,0.00,WUHU216HW,2013-01-21 20:05:00,
2013-01-21 14:30:00,-5.9,-16.0,30.22,West,270,16.6,16.6,61,0.00,,,0.00,WUHU216HW,2013-01-21 20:30:00,
2013-01-21 14:35:00,-5.9,-16.0,30.22,West,270,16.6,16.6,61,0.00,,,0.00,WUHU216HW,2013-01-21 20:35:00,
2013-01-21 14:59:00,-5.4,-15.8,30.22,West,270,11.0,11.0,60,0.00,,,0.00,WUHU216HW,2013-01-21 20:59:00,
2013-01-21 15:00:00,-5.4,-15.8,30.22,West,270,11.0,11.0,60,0.00,,,0.00,WUHU216HW,2013-01-21 21:00:00,
2013-01-21 15:05:00,-5.4,-15.8,30.22,West,270,11.0,11.0,60,0.00,,,0.00,WUHU216HW,2013-01-21 21:05:00,
2013-01-21 15:30:00,-5.0,-15.5,30.21,WNW,293,9.4,9.4,60,0.00,,,0.00,WUHU216HW,2013-01-21 21:30:00,
2013-01-21 15:35:00,-5.0,-15.5,30.21,WNW,293,9.4,9.4,60,0.00,,,0.00,WUHU216HW,2013-01-21 21:35:00,
2013-01-21 16:00:00,-4.9,-15.3,30.21,NNW,338,7.8,7.8,60,0.00,,,0.00,WUHU216HW,2013-01-21 22:00:00,
2013-01-21 16:05:00,-4.9,-15.3,30.21,NNW,338,7.8,7.8,60,0.00,,,0.00,WUHU216HW,2013-01-21 22:05:00,
2013-01-21 16:30:00,-5.2,-15.7,30.21,West,270,10.5,10.5,60,0.00,,,0.00,WUHU216HW,2013-01-21 22:30:00,
2013-01-21 16:35:00,-5.2,-15.7,30.21,West,270,10.5,10.5,60,0.00,,,0.00,WUHU216HW,2013-01-21 22:35:00,
2013-01-21 17:00:00,-6.1,-15.6,30.21,NW,315,9.2,9.2,63,0.00,,,0.00,WUHU216HW,2013-01-21 23:00:00,
2013-01-21 17:05:00,-6.1,-15.6,30.21,NW,315,9.2,9.2,63,0.00,,,0.00,WUHU216HW,2013-01-21 23:05:00,
2013-01-21 17:06:00,-6.1,-15.6,30.21,NW,315,9.2,9.2,63,0.00,,,0.00,WUHU216HW,2013-01-21 23:06:00,
2013-01-21 17:30:00,-6.5,-15.3,30.21,West,270,6.0,6.0,65,0.00,,,0.00,WUHU216HW,2013-01-21 23:30:00,
2013-01-21 17:35:00,-6.7,-15.5,30.21,West,267,7.0,8.7,65,0.00,,,0.00,WUHU216HW,2013-01-21 23:35:00,
2013-01-21 17:36:00,-6.7,-15.5,30.21,West,270,6.0,6.0,65,0.00,,,0.00,WUHU216HW,2013-01-21 23:36:00,
2013-01-21 17:40:00,-6.7,-15.5,30.21,West,270,6.0,8.7,65,0.00,,,0.00,WUHU216HW,2013-01-21 23:40:00,
2013-01-21 17:45:00,-6.7,-15.5,30.21,West,270,6.0,7.6,65,0.00,,,0.00,WUHU216HW,2013-01-21 23:45:00,
2013-01-21 18:30:00,-7.2,-15.0,30.22,WSW,248,3.1,3.1,68,0.00,,,0.00,WUHU216HW,2013-01-22 00:30:00,
2013-01-21 18:35:00,-7.2,-15.0,30.22,WSW,248,3.1,3.1,68,0.00,,,0.00,WUHU216HW,2013-01-22 00:35:00,
2013-01-21 19:00:00,-7.4,-14.9,30.22,WSW,248,5.1,5.1,69,0.00,,,0.00,WUHU216HW,2013-01-22 01:00:00,
2013-01-21 19:01:00,-7.4,-14.9,30.22,WSW,248,4.9,4.9,69,0.00,,,0.00,WUHU216HW,2013-01-22 01:01:00,
2013-01-21 19:05:00,-7.4,-14.9,30.22,WSW,248,4.9,6.0,69,0.00,,,0.00,WUHU216HW,2013-01-22 01:05:00,
2013-01-21 19:10:00,-7.4,-14.9,30.22,WSW,248,4.9,6.0,69,0.00,,,0.00,WUHU216HW,2013-01-22 01:10:00,
2013-01-21 19:31:00,-7.6,-14.8,30.22,West,270,5.4,5.4,70,0.00,,,0.00,WUHU216HW,2013-01-22 01:31:00,
2013-01-21 19:36:00,-7.6,-14.8,30.22,West,270,5.1,5.4,70,0.00,,,0.00,WUHU216HW,2013-01-22 01:36:00,
2013-01-21 19:41:00,-7.6,-14.8,30.22,West,270,5.1,5.1,70,0.00,,,0.00,WUHU216HW,2013-01-22 01:41:00,
2013-01-21 20:00:00,-8.1,-14.7,30.22,WSW,248,4.7,4.7,72,0.00,,,0.00,WUHU216HW,2013-01-22 02:00:00,
2013-01-21 20:05:00,-8.1,-14.7,30.22,West,270,4.0,4.7,72,0.00,,,0.00,WUHU216HW,2013-01-22 02:05:00,
2013-01-21 20:10:00,-8.1,-14.7,30.22,West,270,4.0,4.0,72,0.00,,,0.00,WUHU216HW,2013-01-22 02:10:00,
2013-01-21 20:30:00,-8.5,-15.1,30.22,WSW,248,3.8,3.8,72,0.00,,,0.00,WUHU216HW,2013-01-22 02:30:00,
2013-01-21 20:31:00,-8.5,-15.1,30.22,WSW,258,3.7,3.8,72,0.00,,,0.00,WUHU216HW,2013-01-22 02:31:00,
2013-01-21 20:35:00,-8.5,-15.1,30.22,West,270,3.6,3.8,72,0.00,,,0.00,WUHU216HW,2013-01-22 02:35:00,
2013-01-21 20:36:00,-8.5,-15.1,30.22,West,270,3.6,3.8,72,0.00,,,0.00,WUHU216HW,2013-01-22 02:36:00,
2013-01-21 20:40:00,-8.5,-15.1,30.22,West,270,3.6,3.6,72,0.00,,,0.00,WUHU216HW,2013-01-22 02:40:00,
2013-01-21 21:00:00,-8.6,-15.0,30.22,WSW,248,6.3,6.3,73,0.00,,,0.00,WUHU216HW,2013-01-22 03:00:00,
2013-01-21 21:05:00,-8.6,-15.0,30.22,WSW,248,6.3,6.3,73,0.00,,,0.00,WUHU216HW,2013-01-22 03:05:00,
2013-01-21 21:10:00,-8.6,-15.0,30.22,WSW,248,6.3,6.3,73,0.00,,,0.00,WUHU216HW,2013-01-22 03:10:00,
2013-01-21 21:30:00,-8.6,-15.0,30.23,West,270,5.1,5.1,73,0.00,,,0.00,WUHU216HW,2013-01-22 03:30:00,
2013-01-21 21:35:00,-8.6,-15.0,30.22,West,270,6.0,6.0,73,0.00,,,0.00,WUHU216HW,2013-01-22 03:35:00,
2013-01-21 21:36:00,-8.6,-15.0,30.22,West,270,6.0,6.0,73,0.00,,,0.00,WUHU216HW,2013-01-22 03:36:00,
2013-01-21 22:00:00,-8.6,-15.0,30.23,WNW,293,6.3,6.3,73,0.00,,,0.00,WUHU216HW,2013-01-22 04:00:00,
2013-01-21 22:05:00,-8.6,-15.0,30.23,WNW,293,6.3,6.3,73,0.00,,,0.00,WUHU216HW,2013-01-22 04:05:00,
2013-01-21 22:10:00,-8.6,-15.0,30.23,WNW,293,6.3,6.3,73,0.00,,,0.00,WUHU216HW,2013-01-22 04:10:00,
2013-01-21 22:30:00,-8.5,-15.1,30.22,WNW,293,9.8,9.8,72,0.00,,,0.00,WUHU216HW,2013-01-22 04:30:00,
2013-01-21 22:31:00,-8.5,-15.1,30.23,WNW,293,9.6,9.8,72,0.00,,,0.00,WUHU216HW,2013-01-22 04:31:00,
2013-01-21 22:35:00,-8.5,-15.1,30.23,WNW,293,9.6,9.8,72,0.00,,,0.00,WUHU216HW,2013-01-22 04:35:00,
2013-01-21 22:36:00,-8.5,-15.1,30.23,WNW,293,9.6,9.8,72,0.00,,,0.00,WUHU216HW,2013-01-22 04:36:00,
2013-01-21 22:40:00,-8.5,-15.1,30.23,WNW,293,9.6,9.6,72,0.00,,,0.00,WUHU216HW,2013-01-22 04:40:00,
2013-01-21 23:00:00,-8.8,-15.5,30.23,WNW,293,3.8,3.8,72,0.00,,,0.00,WUHU216HW,2013-01-22 05:00:00,
2013-01-21 23:01:00,-8.8,-15.5,30.23,WNW,287,3.7,3.8,72,0.00,,,0.00,WUHU216HW,2013-01-22 05:01:00,
2013-01-21 23:02:00,-8.8,-15.5,30.23,WSW,248,3.6,3.8,72,0.00,,,0.00,WUHU216HW,2013-01-22 05:02:00,
2013-01-21 23:06:00,-8.8,-15.5,30.23,WSW,248,3.6,3.8,72,0.00,,,0.00,WUHU216HW,2013-01-22 05:06:00,
2013-01-21 23:07:00,-8.8,-15.5,30.23,WSW,248,3.6,3.8,72,0.00,,,0.00,WUHU216HW,2013-01-22 05:07:00,
2013-01-21 23:08:00,-8.8,-15.5,30.23,WSW,248,3.6,3.8,72,0.00,,,0.00,WUHU216HW,2013-01-22 05:08:00,
2013-01-21 23:30:00,-9.2,-15.6,30.23,West,270,4.0,4.0,73,0.00,,,0.00,WUHU216HW,2013-01-22 05:30:00,
2013-01-21 23:35:00,-9.4,-15.7,30.23,West,270,4.9,4.9,73,0.00,,,0.00,WUHU216HW,2013-01-22 05:35:00,
2013-01-21 23:36:00,-9.4,-15.7,30.23,West,270,4.9,4.9,73,0.00,,,0.00,WUHU216HW,2013-01-22 05:36:00,
2013-01-21 23:40:00,-9.4,-15.7,30.23,West,270,4.9,4.9,73,0.00,,,0.00,WUHU216HW,2013-01-22 05:40:00,